Dryden, TX

12:49 PM CDT on October 23, 2017 (GMT -0500)
Dryden

Weather History for K6R6 - August, 2013

Change the Weather History Date:

Thursday, August 22, 2013

  Actual Average (KFST) Record (KFST)
Temperature  
Mean Temperature 85 °F -  
Max Temperature 97 °F 90 °F 100 °F (1997)
Min Temperature 75 °F 68 °F 66 °F (1998)
Cooling Degree Days 20    
Growing Degree Days 35 (Base 50)    
Moisture  
Dew Point 63 °F    
Average Humidity 51    
Maximum Humidity 76    
Minimum Humidity 28    
Precipitation  
Precipitation 0.00 in - - ()
Sea Level Pressure  
Sea Level Pressure 29.93 in    
Wind  
Wind Speed 10 mph (East)    
Max Wind Speed 18 mph    
Max Gust Speed 26 mph    
Averages and records for this station are not official NWS values.
T = Trace of Precipitation, MM = Missing Value Source: NWS Daily Summary

Daily Weather History Graph

Daily Weather History Graph

Search for Another Location

Airport or City:

Trip Planner

Search our weather history database for the weather conditions in past years. The results will help you decide how hot, cold, wet, or windy it might be!

Date:

Astronomy

Aug. 22, 2013 Rise Set
Actual Time 7:20 AM CDT 8:22 PM CDT
Civil Twilight 6:55 AM CDT 8:47 PM CDT
Nautical Twilight 6:26 AM CDT 9:16 PM CDT
Astronomical Twilight 5:55 AM CDT 9:46 PM CDT
Moon 9:22 PM CDT (8/22) 8:59 AM CDT (8/22)
Length of Visible Light 13h 51m
Length of Day
13h 01m
Waning Gibbous, 96% of the Moon is Illuminated
Aug 22
Waning Gibbous
Aug 28
Last Quarter
Sep 5
New
Sep 12
First Quarter
Sep 19
Full

Hourly Weather History & Observations

Time (CDT) Temp. Heat Index Dew Point Humidity Pressure Visibility Wind Dir Wind Speed Gust Speed Precip Events Conditions
12:53 AM 81.0 °F 82.2 °F 63.0 °F 54% 29.95 in - East 11.5 mph - N/A   Unknown
1:53 AM 79.0 °F - 64.0 °F 60% 29.94 in - East 10.4 mph - N/A   Unknown
2:53 AM 78.1 °F - 64.9 °F 64% 29.93 in - East 10.4 mph - N/A   Unknown
3:53 AM 77.0 °F - 64.9 °F 66% 29.93 in - East 6.9 mph - N/A   Unknown
4:53 AM 75.0 °F - 66.0 °F 73% 29.94 in - East 5.8 mph - N/A   Unknown
5:53 AM 75.0 °F - 66.0 °F 73% 29.95 in - East 5.8 mph - N/A   Unknown
6:53 AM 75.0 °F - 66.9 °F 76% 29.96 in - East 3.5 mph - N/A   Unknown
7:53 AM 75.0 °F - 66.9 °F 76% 29.98 in - ENE 4.6 mph - N/A   Unknown
8:53 AM 77.0 °F - 68.0 °F 74% 29.99 in - ENE 5.8 mph - N/A   Unknown
9:53 AM 80.1 °F 82.3 °F 66.9 °F 64% 30.00 in - East 6.9 mph - N/A   Unknown
10:53 AM 82.9 °F 85.4 °F 66.9 °F 58% 30.00 in - East 5.8 mph - N/A   Unknown
11:53 AM 84.9 °F 87.1 °F 66.0 °F 53% 30.00 in - ESE 8.1 mph - N/A   Unknown
12:53 PM 86.0 °F 88.2 °F 66.0 °F 51% 29.99 in - East 10.4 mph - N/A   Unknown
1:53 PM 93.9 °F 94.8 °F 62.1 °F 35% 29.94 in - ESE 15.0 mph 24.2 mph N/A   Unknown
2:53 PM 95.0 °F 94.8 °F 60.1 °F 31% 29.91 in - East 17.3 mph 24.2 mph N/A   Unknown
3:53 PM 95.0 °F 94.0 °F 57.9 °F 29% 29.89 in - ESE 15.0 mph 20.7 mph N/A   Unknown
4:53 PM 93.9 °F 92.9 °F 57.9 °F 30% 29.87 in - East 17.3 mph 26.5 mph N/A   Unknown
5:53 PM 95.0 °F 93.7 °F 57.0 °F 28% 29.86 in - East 17.3 mph 25.3 mph N/A   Unknown
6:53 PM 93.9 °F 92.6 °F 57.0 °F 29% 29.85 in - East 18.4 mph 24.2 mph N/A   Unknown
7:53 PM 91.0 °F 90.2 °F 59.0 °F 34% 29.86 in - ESE 13.8 mph 24.2 mph N/A   Unknown
8:53 PM 89.1 °F 88.2 °F 59.0 °F 36% 29.88 in - ESE 12.7 mph - N/A   Unknown
9:53 PM 88.0 °F 87.1 °F 59.0 °F 37% 29.91 in - ESE 11.5 mph - N/A   Unknown
10:53 PM 88.0 °F 87.9 °F 61.0 °F 40% 29.92 in - ESE 12.7 mph - N/A   Unknown
11:53 PM 87.1 °F 87.5 °F 62.1 °F 43% 29.92 in - SE 11.5 mph - N/A   Unknown